Newport, AR

7:19 AM CDT on August 21, 2017 (GMT -0500)
Newport

Weather History for KM19 - August, 2013

Change the Weather History Date:

Tuesday, August 6, 2013

  Actual Average (KBVX) Record (KBVX)
Temperature  
Mean Temperature 79 °F -  
Max Temperature 86 °F 92 °F 105 °F (2011)
Min Temperature 72 °F 67 °F 54 °F (1957)
Cooling Degree Days 14    
Growing Degree Days 29 (Base 50)    
Moisture  
Dew Point 75 °F    
Average Humidity 91    
Maximum Humidity 100    
Minimum Humidity 69    
Precipitation  
Precipitation 0.02 in - - ()
Sea Level Pressure  
Sea Level Pressure 29.91 in    
Wind  
Wind Speed 10 mph (ESE)    
Max Wind Speed 20 mph    
Max Gust Speed 24 mph    
Visibility 10 miles    
Events Rain , Thunderstorm    
Averages and records for this station are not official NWS values.
T = Trace of Precipitation, MM = Missing Value Source: NWS Daily Summary

Daily Weather History Graph

Daily Weather History Graph

Search for Another Location

Airport or City:

Trip Planner

Search our weather history database for the weather conditions in past years. The results will help you decide how hot, cold, wet, or windy it might be!

Date:

Astronomy

Aug. 06, 2013 Rise Set
Actual Time 6:16 AM CDT 8:03 PM CDT
Civil Twilight 5:49 AM CDT 8:31 PM CDT
Nautical Twilight 5:15 AM CDT 9:04 PM CDT
Astronomical Twilight 4:40 AM CDT 9:40 PM CDT
Moon 6:06 AM CDT (8/6) 7:41 PM CDT (8/6)
Length of Visible Light 14h 42m
Length of Day
13h 46m
Waning Crescent, 0% of the Moon is Illuminated
Aug 6
Waning Crescent
Aug 6
New
Aug 14
First Quarter
Aug 20
Full
Aug 28
Last Quarter

Hourly Weather History & Observations

Time (CDT) Temp. Heat Index Dew Point Humidity Pressure Visibility Wind Dir Wind Speed Gust Speed Precip Events Conditions
12:09 AM 80.6 °F 89.3 °F 80.6 °F 100% 29.88 in 10.0 mi SSW 16.1 mph - 0.00 in Rain Light Rain
12:30 AM 78.8 °F - 77.0 °F 94% 29.85 in 10.0 mi SSW 19.6 mph - 0.01 in Rain , Thunderstorm Light Thunderstorms and Rain
12:56 AM 77.9 °F - 74.8 °F 90% 29.87 in 10.0 mi WSW 13.8 mph - 0.01 in   Partly Cloudy
1:07 AM 78.8 °F - 75.2 °F 89% 29.88 in 10.0 mi West 10.4 mph - 0.00 in   Clear
1:56 AM 75.9 °F - 74.8 °F 96% 29.88 in 10.0 mi Calm Calm - 0.00 in   Clear
2:56 AM 73.9 °F - 73.9 °F 100% 29.86 in 10.0 mi South 3.5 mph - N/A   Clear
3:56 AM 73.9 °F - 73.9 °F 100% 29.88 in 10.0 mi Calm Calm - N/A   Clear
4:56 AM 72.9 °F - 72.9 °F 100% 29.88 in 10.0 mi Calm Calm - N/A   Clear
5:56 AM 72.9 °F - 72.9 °F 100% 29.89 in 10.0 mi South 4.6 mph - N/A   Clear
6:56 AM 72.9 °F - 72.9 °F 100% 29.90 in 10.0 mi SSE 5.8 mph - N/A   Partly Cloudy
7:56 AM 73.9 °F - 72.9 °F 96% 29.95 in 10.0 mi NNW 19.6 mph 23.0 mph N/A   Mostly Cloudy
8:03 AM 73.4 °F - 73.4 °F 100% 29.95 in 10.0 mi Calm Calm - N/A   Overcast
8:35 AM 75.2 °F - 73.4 °F 94% 29.96 in 10.0 mi North 6.9 mph - 0.00 in Rain Light Rain
8:56 AM 74.8 °F - 73.9 °F 97% 29.96 in 10.0 mi NNE 6.9 mph - 0.00 in   Overcast
9:36 AM 75.2 °F - 73.4 °F 94% 29.98 in 10.0 mi NNE 19.6 mph 24.2 mph N/A   Overcast
9:44 AM 73.4 °F - 71.6 °F 94% 29.98 in 10.0 mi NE 18.4 mph 21.9 mph N/A   Overcast
9:56 AM 73.9 °F - 70.9 °F 90% 29.97 in 10.0 mi NE 12.7 mph - N/A   Overcast
10:03 AM 73.4 °F - 71.6 °F 94% 29.97 in 10.0 mi NE 12.7 mph - N/A   Overcast
10:31 AM 77.0 °F - 73.4 °F 89% 29.97 in 10.0 mi NE 10.4 mph - N/A   Mostly Cloudy
10:56 AM 79.0 °F - 72.9 °F 81% 29.96 in 10.0 mi ENE 10.4 mph - N/A   Scattered Clouds
11:56 AM 77.0 °F - 72.9 °F 87% 29.97 in 10.0 mi NE 12.7 mph - N/A   Scattered Clouds
12:56 PM 79.9 °F - 73.9 °F 82% 29.95 in 10.0 mi ESE 6.9 mph - N/A   Partly Cloudy
1:56 PM 79.0 °F - 73.9 °F 84% 29.95 in 10.0 mi ESE 4.6 mph - 0.00 in Rain Light Rain
2:56 PM 79.9 °F - 74.8 °F 85% 29.90 in 10.0 mi SSE 13.8 mph - 0.01 in   Scattered Clouds
3:56 PM 86.0 °F 96.0 °F 75.9 °F 72% 29.90 in 10.0 mi South 9.2 mph - N/A   Clear
4:56 PM 86.0 °F 94.6 °F 74.8 °F 69% 29.89 in 10.0 mi South 9.2 mph - N/A   Clear
5:56 PM 86.9 °F 98.3 °F 77.0 °F 72% 29.88 in 10.0 mi South 8.1 mph - N/A   Clear
6:56 PM 84.9 °F 97.5 °F 79.0 °F 82% 29.88 in 10.0 mi SE 5.8 mph - N/A   Partly Cloudy
7:56 PM 81.9 °F 91.3 °F 79.0 °F 91% 29.87 in 10.0 mi ESE 5.8 mph - N/A   Clear
8:56 PM 79.9 °F - 79.0 °F 97% 29.88 in 10.0 mi East 5.8 mph - N/A   Clear
9:56 PM 79.9 °F - 79.0 °F 97% 29.88 in 10.0 mi ESE 5.8 mph - N/A   Clear
10:56 PM 77.9 °F - 77.9 °F 100% 29.88 in 6.0 mi ESE 6.9 mph - N/A   Clear
11:56 PM 77.9 °F - 77.9 °F 100% 29.89 in 4.0 mi ESE 4.6 mph - N/A   Clear